FW1924 Weather Reports


Display with metric or nautical units.
time (UTC)temp
F
wind
direction
speed
MPH
gust
MPH
rain 1hr
in
rain 24hr
in
rain mn
in
humidity
%
barometer
mb
20260506184541 57 273 9.0 22.0 0.00 0.14 0.14 32 1015.7
20260506183036 57 335 13.0 19.0 0.00 0.14 0.14 31 1015.9
20260506181521 56 5 9.0 19.0 0.00 0.14 0.14 35 1015.6
20260506180011 55 329 9.0 22.0 0.00 0.14 0.14 33 1015.8
20260506174601 54 332 12.0 21.0 0.00 0.14 0.14 31 1015.8
20260506173117 54 314 12.0 19.0 0.00 0.14 0.14 34 1015.7
20260506171539 54 345 11.0 23.0 0.00 0.14 0.14 34 1015.5
20260506170032 53 320 13.0 23.0 0.00 0.14 0.14 30 1015.2
20260506164521 52 355 14.0 20.0 0.00 0.14 0.14 30 1014.9
20260506163009 51 331 11.0 21.0 0.00 0.14 0.14 36 1014.7
20260506161505 50 333 15.0 25.0 0.00 0.14 0.14 40 1014.5
20260506160009 49 338 16.0 24.0 0.00 0.14 0.14 40 1014.1
20260506154519 48 319 13.0 25.0 0.00 0.15 0.14 46 1013.9
20260506153109 48 327 9.0 21.0 0.00 0.15 0.14 49 1013.7
20260506151517 47 355 14.0 24.0 0.00 0.15 0.14 47 1013.5
20260506150005 46 334 12.0 21.0 0.00 0.15 0.14 48 1013.2
20260506144554 46 329 14.0 21.0 0.00 0.15 0.14 55 1013.3
20260506143052 45 328 10.0 15.0 0.00 0.15 0.14 62 1013.0
20260506141544 44 342 6.0 11.0 0.00 0.15 0.14 66 1013.0
20260506140044 43 5 5.0 10.0 0.00 0.15 0.14 69 1012.8
20260506134540 41 346 4.0 9.0 0.00 0.15 0.14 74 1012.6
20260506133030 40 304 2.0 6.0 0.00 0.15 0.14 78 1012.5
20260506131539 39 253 2.0 4.0 0.00 0.15 0.14 78 1012.0
20260506130008 39 242 1.0 2.0 0.00 0.15 0.14 78 1011.8
20260506124602 39 238 2.0 5.0 0.00 0.15 0.14 77 1011.4
20260506123058 40 238 2.0 5.0 0.00 0.15 0.14 77 1011.2
20260506121549 39 244 4.0 8.0 0.00 0.15 0.14 77 1011.3
20260506120049 40 240 3.0 7.0 0.00 0.15 0.14 77 1011.1
20260506114547 40 240 2.0 8.0 0.00 0.15 0.14 77 1011.0
20260506113047 40 246 2.0 8.0 0.00 0.15 0.14 78 1011.1
20260506111539 40 335 0.0 6.0 0.00 0.15 0.14 79 1011.0
20260506110106 40 298 2.0 6.0 0.00 0.15 0.14 80 1011.0
20260506104553 39 313 1.0 5.0 0.00 0.19 0.14 80 1011.0
20260506103048 39 336 6.0 14.0 0.00 0.19 0.14 81 1010.7
20260506101546 39 355 5.0 13.0 0.00 0.19 0.14 82 1010.4
20260506100038 39 345 4.0 9.0 0.00 0.19 0.14 83 1010.0
20260506094531 40 355 5.0 12.0 0.02 0.19 0.14 83 1009.5
20260506093021 40 33 3.0 9.0 0.10 0.19 0.14 83 1009.3
20260506091512 41 14 0.0 5.0 0.13 0.19 0.14 82 1008.9
20260506090100 41 39 6.0 13.0 0.14 0.19 0.14 81 1008.5
20260506084548 43 35 6.0 16.0 0.12 0.17 0.12 78 1008.4
20260506083037 46 345 10.0 24.0 0.04 0.09 0.04 76 1007.8
20260506081531 47 63 1.0 4.0 0.00 0.05 0.00 76 1005.9
20260506073013 49 58 1.0 4.0 0.00 0.05 0.00 73 1005.7
20260506071502 50 69 2.0 6.0 0.00 0.05 0.00 72 1005.9
20260506061520 51 240 1.0 8.0 0.00 0.05 0.00 65 1005.4
20260506060132 51 223 6.0 18.0 0.00 0.05 0.00 63 1005.3
20260506044615 49 205 4.0 9.0 0.00 0.05 0.05 63 1004.0
20260506043051 49 220 4.0 9.0 0.00 0.05 0.05 63 1004.0
20260506041547 49 190 5.0 9.0 0.00 0.05 0.05 64 1004.0
20260506040036 49 205 3.0 7.0 0.00 0.05 0.05 63 1004.0
20260506034527 50 198 3.0 7.0 0.00 0.05 0.05 62 1003.9
20260506033018 50 208 3.0 9.0 0.00 0.05 0.05 61 1003.8
20260506031510 51 204 4.0 8.0 0.00 0.05 0.05 59 1003.5
20260506030018 52 185 4.0 9.0 0.00 0.05 0.05 57 1003.3
20260506024603 53 183 6.0 10.0 0.00 0.05 0.05 56 1003.1
20260506023055 54 180 8.0 12.0 0.00 0.05 0.05 54 1002.9
20260506021543 55 155 6.0 11.0 0.00 0.05 0.05 53 1002.8
20260506020035 56 148 7.0 13.0 0.00 0.05 0.05 51 1002.7
20260506014537 58 169 9.0 12.0 0.00 0.05 0.05 50 1002.7
20260506013035 59 174 8.0 13.0 0.00 0.05 0.05 48 1002.7
20260506011525 59 190 4.0 10.0 0.00 0.05 0.05 48 1002.7
20260506010019 59 184 6.0 13.0 0.00 0.05 0.05 48 1002.6
20260506004518 60 180 6.0 14.0 0.00 0.05 0.05 48 1002.7
20260506003039 60 137 5.0 10.0 0.00 0.05 0.05 47 1002.7
20260506001533 60 186 8.0 16.0 0.00 0.05 0.05 48 1002.6
20260506000027 60 134 5.0 8.0 0.00 0.05 0.05 49 1002.7
20260505234527 60 184 7.0 12.0 0.00 0.05 0.05 49 1002.7
20260505233010 60 167 8.0 12.0 0.00 0.05 0.05 49 1002.6
20260505231605 59 124 4.0 13.0 0.00 0.05 0.05 51 1002.7
20260505224548 56 132 6.0 12.0 0.00 0.05 0.05 57 1002.9
20260505223036 55 132 5.0 11.0 0.00 0.05 0.05 61 1003.1
20260505221537 54 166 7.0 12.0 0.00 0.05 0.05 60 1003.2
20260505220032 54 146 2.0 8.0 0.00 0.05 0.05 62 1003.5
20260505214521 55 121 1.0 4.0 0.00 0.05 0.05 56 1003.7
20260505213011 55 125 0.0 4.0 0.00 0.05 0.05 55 1003.6
20260505211601 55 175 6.0 10.0 0.00 0.05 0.05 54 1003.5
20260505210053 55 149 7.0 16.0 0.00 0.05 0.05 54 1003.3
20260505204542 54 125 8.0 14.0 0.00 0.05 0.05 56 1003.2
20260505203033 54 150 8.0 16.0 0.00 0.05 0.05 56 1003.2
20260505201532 54 159 10.0 15.0 0.00 0.05 0.05 56 1003.1
20260505200027 54 174 8.0 16.0 0.00 0.05 0.05 58 1003.0
20260505194517 53 117 9.0 20.0 0.00 0.05 0.05 58 1003.1
20260505193051 54 167 9.0 19.0 0.00 0.05 0.05 58 1003.0
20260505191608 54 155 10.0 18.0 0.00 0.05 0.05 57 1002.9
20260505190043 54 160 12.0 21.0 0.00 0.05 0.05 59 1002.8